FW5264 Weather Reports


Display with metric or nautical units.
time (UTC)temp
F
wind
direction
speed
MPH
gust
MPH
rain 1hr
in
rain 24hr
in
rain mn
in
humidity
%
barometer
mb
20191020090224 46 315 0.0 0.0 0.00 0.00 0.00 96 0.2
20191020085225 46 315 1.0 0.0 0.00 0.00 0.00 97 0.2
20191020084323 46 315 1.0 0.0 0.00 0.00 0.00 96 0.2
20191020083422 46 315 1.0 0.0 0.00 0.00 0.00 97 0.2
20191020082422 46 315 1.0 0.0 0.00 0.00 0.00 97 0.2
20191020081425 46 315 1.0 0.0 0.00 0.00 0.00 97 0.2
20191020080421 46 315 0.0 0.0 0.00 0.00 0.00 98 0.2
20191020075423 46 315 1.0 0.0 0.00 0.00 0.00 98 0.2
20191020074523 46 315 1.0 0.0 0.00 0.00 0.00 98 0.2
20191020073622 46 292 1.0 0.0 0.00 0.00 0.00 99 0.2
20191020072623 46 315 0.0 0.0 0.00 0.00 0.00 99 0.2
20191020071724 45 315 1.0 0.0 0.00 0.00 0.00 100 0.2
20191020070723 45 315 0.0 0.0 0.00 0.00 0.00 100 0.2
20191020065725 45 315 0.0 0.0 0.00 0.00 0.00 99 0.2
20191020064724 44 315 1.0 0.0 0.00 0.00 0.00 99 0.2
20191020063822 45 315 0.0 0.0 0.00 0.00 0.00 99 0.2
20191020062824 45 315 0.0 0.0 0.00 0.00 0.00 99 0.2
20191020061824 44 292 0.0 0.0 0.00 0.00 0.00 98 0.2
20191020060922 44 292 0.0 0.0 0.00 0.00 0.00 99 0.2
20191020055925 44 292 0.0 0.0 0.00 0.00 0.00 99 0.2
20191020054923 44 292 0.0 0.0 0.00 0.00 0.00 99 0.2
20191020054021 44 292 0.0 0.0 0.00 0.00 0.00 98 0.2
20191020053022 44 292 0.0 0.0 0.00 0.00 0.00 98 0.2
20191020052021 44 292 0.0 0.0 0.00 0.00 0.00 98 0.2
20191020051024 44 292 0.0 0.0 0.00 0.00 0.00 97 0.2
20191020050125 43 292 0.0 0.0 0.00 0.00 0.00 97 0.2
20191020045223 43 292 0.0 0.0 0.00 0.00 0.00 96 0.2
20191020044224 45 292 0.0 0.0 0.00 0.00 0.00 96 0.2
20191020043324 45 292 0.0 0.0 0.00 0.00 0.00 96 0.2
20191020042326 45 292 0.0 0.0 0.00 0.00 0.00 95 0.2
20191020041325 45 292 0.0 0.0 0.00 0.00 0.00 95 0.2
20191020040322 46 292 0.0 0.0 0.00 0.00 0.00 96 0.2
20191020035406 45 315 1.0 0.0 0.00 0.00 0.00 97 0.2
20191020034409 44 315 0.0 0.0 0.00 0.00 0.00 97 0.2
20191020033505 44 315 1.0 0.0 0.00 0.00 0.00 95 0.2
20191020032507 44 315 0.0 0.0 0.00 0.00 0.00 95 0.2
20191020031606 44 315 0.0 0.0 0.00 0.00 0.00 96 0.2
20191020030609 44 315 0.0 0.0 0.00 0.00 0.00 96 0.2
20191020025706 44 315 0.0 0.0 0.00 0.00 0.00 95 0.2
20191020024710 45 315 1.0 0.0 0.00 0.00 0.00 95 0.2
20191020023706 44 315 1.0 0.0 0.00 0.00 0.00 95 0.2
20191020022707 44 315 0.0 0.0 0.00 0.00 0.00 95 0.2
20191020021808 45 315 0.0 0.0 0.00 0.00 0.00 94 0.2
20191020020809 46 315 0.0 0.0 0.00 0.00 0.00 94 0.2
20191020015908 45 315 1.0 0.0 0.00 0.00 0.00 94 0.2
20191020015007 45 315 0.0 0.0 0.00 0.00 0.00 93 0.2
20191020014007 46 315 0.0 0.0 0.00 0.00 0.00 93 0.2
20191020013107 46 315 1.0 0.0 0.00 0.00 0.00 93 0.2
20191020012107 45 315 0.0 0.0 0.00 0.00 0.00 92 0.2
20191020011109 46 315 0.0 0.0 0.00 0.00 0.00 92 0.2
20191020010206 46 270 0.0 0.0 0.00 0.00 0.00 92 0.2
20191020005306 45 270 0.0 0.0 0.00 0.00 0.00 89 0.2
20191020004310 46 270 0.0 0.0 0.00 0.00 0.00 90 0.2
20191020003409 46 292 1.0 0.0 0.00 0.00 0.00 91 0.2
20191020002506 45 270 0.0 0.0 0.00 0.00 0.00 88 0.2
20191020001511 46 270 0.0 0.0 0.00 0.00 0.00 88 0.2
20191020000607 46 270 0.0 0.0 0.00 0.00 0.00 87 0.2
20191019235708 47 270 0.0 0.0 0.00 0.00 0.00 87 0.2
20191019234708 47 264 0.0 0.0 0.00 0.00 0.00 88 0.2
20191019233806 46 270 0.0 0.0 0.00 0.00 0.00 89 0.2
20191019232810 46 235 0.0 0.0 0.00 0.00 0.00 87 0.2
20191019231906 47 225 0.0 0.0 0.00 0.00 0.00 88 0.2
20191019230908 46 292 0.0 0.0 0.00 0.00 0.00 87 0.2
20191019225908 46 225 0.0 0.0 0.00 0.00 0.00 88 0.2
20191019225005 45 315 0.0 0.0 0.00 0.00 0.00 87 0.2
20191019224010 46 225 0.0 0.0 0.00 0.00 0.00 87 0.2
20191019223108 45 225 0.0 0.0 0.00 0.00 0.00 85 0.2
20191019222109 46 225 0.0 0.0 0.00 0.00 0.00 81 0.2
20191019221109 47 225 0.0 0.0 0.00 0.00 0.00 80 0.2
20191019220107 48 247 0.0 0.0 0.00 0.00 0.00 78 0.2
20191019215206 49 233 0.0 0.0 0.00 0.00 0.00 77 0.2
20191019214208 50 247 0.0 0.0 0.00 0.00 0.00 75 0.2
20191019213306 50 261 1.0 0.0 0.00 0.00 0.00 73 0.2
20191019212308 51 270 0.0 0.0 0.00 0.00 0.00 71 0.2
20191019211408 51 252 0.0 0.0 0.00 0.00 0.00 68 0.2
20191019210506 52 273 2.0 0.0 0.00 0.00 0.00 67 0.2
20191019205508 52 220 0.0 0.0 0.00 0.00 0.00 66 0.2
20191019204607 52 249 2.0 0.0 0.00 0.00 0.00 64 0.2
20191019203608 53 311 1.0 0.0 0.00 0.00 0.00 63 0.2
20191019202706 54 275 3.0 0.0 0.00 0.00 0.00 61 0.2
20191019201710 54 243 1.0 0.0 0.00 0.00 0.00 59 0.2
20191019200808 54 142 0.0 0.0 0.00 0.00 0.00 60 0.2
20191019195808 54 280 3.0 0.0 0.00 0.00 0.00 60 0.2
20191019194808 54 295 3.0 0.0 0.00 0.00 0.00 59 0.2
20191019193907 54 286 3.0 0.0 0.00 0.00 0.00 59 0.2
20191019193006 54 283 5.0 0.0 0.00 0.00 0.00 58 0.2
20191019192010 54 222 1.0 0.0 0.00 0.00 0.00 57 0.2
20191019191109 54 284 5.0 0.0 0.00 0.00 0.00 57 0.2
20191019190112 55 281 4.0 0.0 0.00 0.00 0.00 56 0.2
20191019185107 54 279 4.0 0.0 0.00 0.00 0.00 56 0.2
20191019184206 54 301 3.0 0.0 0.00 0.00 0.00 56 0.2
20191019183209 55 247 3.0 0.0 0.00 0.00 0.00 56 0.2
20191019182307 54 289 1.0 0.0 0.00 0.00 0.00 55 0.2
20191019181307 54 298 5.0 0.0 0.00 0.00 0.00 56 0.2
20191019180308 54 261 4.0 0.0 0.00 0.00 0.00 55 0.2
20191019175305 55 252 2.0 0.0 0.00 0.00 0.00 56 0.2
20191019174309 54 285 3.0 0.0 0.00 0.00 0.00 56 0.2
20191019173407 54 204 1.0 0.0 0.00 0.00 0.00 57 0.2
20191019172407 53 222 1.0 0.0 0.00 0.00 0.00 55 0.2
20191019171407 55 291 3.0 0.0 0.00 0.00 0.00 55 0.2
20191019170505 54 217 0.0 0.0 0.00 0.00 0.00 56 0.2
20191019165507 54 261 2.0 0.0 0.00 0.00 0.00 55 0.2
20191019164605 54 281 2.0 0.0 0.00 0.00 0.00 56 0.2
20191019163611 53 317 1.0 0.0 0.00 0.00 0.00 55 0.2
20191019162706 52 248 0.0 0.0 0.00 0.00 0.00 55 0.2
20191019161710 53 294 5.0 0.0 0.00 0.00 0.00 56 0.2
20191019160708 53 262 0.0 0.0 0.00 0.00 0.00 57 0.2
20191019155707 52 316 2.0 0.0 0.00 0.00 0.00 57 0.2
20191019154804 51 247 2.0 0.0 0.00 0.00 0.00 58 0.2
20191019153810 51 289 4.0 0.0 0.00 0.00 0.00 56 0.2
20191019152906 52 301 4.0 0.0 0.00 0.00 0.00 58 0.2
20191019151909 52 92 0.0 0.0 0.00 0.00 0.00 59 0.2
20191019151007 52 304 3.0 0.0 0.00 0.00 0.00 58 0.2
20191019150105 52 76 2.0 0.0 0.00 0.00 0.00 60 0.2
20191019145108 51 304 4.0 0.0 0.00 0.00 0.00 61 0.2
20191019144108 51 315 3.0 0.0 0.00 0.00 0.00 61 0.2
20191019143206 51 326 1.0 0.0 0.00 0.00 0.00 61 0.2
20191019142206 50 312 0.0 0.0 0.00 0.00 0.00 62 0.2
20191019141210 50 329 5.0 0.0 0.00 0.00 0.00 62 0.2
20191019140209 50 330 2.0 0.0 0.00 0.00 0.00 62 0.2
20191019135306 50 312 2.0 0.0 0.00 0.00 0.00 63 0.2
20191019134404 50 39 1.0 0.0 0.00 0.00 0.00 64 0.2
20191019133505 49 22 3.0 0.0 0.00 0.00 0.00 65 0.2
20191019132507 49 305 3.0 0.0 0.00 0.00 0.00 65 0.2
20191019131509 49 47 1.0 0.0 0.00 0.00 0.00 68 0.2
20191019130608 49 336 2.0 0.0 0.00 0.00 0.00 67 0.2
20191019125706 49 357 2.0 0.0 0.00 0.00 0.00 68 0.2
20191019124708 48 346 3.0 0.0 0.00 0.00 0.00 70 0.2
20191019123707 48 332 3.0 0.0 0.00 0.00 0.00 71 0.2
20191019122710 48 358 2.0 0.0 0.00 0.00 0.00 72 0.2
20191019121708 47 238 0.0 0.0 0.00 0.00 0.00 73 0.2
20191019120707 46 344 1.0 0.0 0.00 0.00 0.00 74 0.2
20191019115709 46 353 2.0 0.0 0.00 0.00 0.00 76 0.2
20191019114707 45 55 2.0 0.0 0.00 0.00 0.00 77 0.2
20191019113807 44 22 2.0 0.0 0.00 0.00 0.00 79 0.2
20191019112907 44 305 2.0 0.0 0.00 0.00 0.00 81 0.2
20191019111907 43 336 2.0 0.0 0.00 0.00 0.00 82 0.2
20191019110907 43 279 0.0 0.0 0.00 0.00 0.00 81 0.2
20191019110007 43 329 1.0 0.0 0.00 0.00 0.00 81 0.2
20191019105011 43 357 0.0 0.0 0.00 0.00 0.00 82 0.2
20191019104108 43 20 2.0 0.0 0.00 0.00 0.00 82 0.2
20191019103207 43 307 2.0 0.0 0.00 0.00 0.00 81 0.2
20191019102308 44 35 2.0 0.0 0.00 0.00 0.00 80 0.2
20191019101308 43 268 2.0 0.0 0.00 0.00 0.00 82 0.2
20191019100405 44 274 1.0 0.0 0.00 0.00 0.00 81 0.2
20191019095407 43 285 2.0 0.0 0.00 0.00 0.00 83 0.2
20191019094406 43 341 2.0 0.0 0.00 0.00 0.00 83 0.2
20191019093506 43 305 0.0 0.0 0.00 0.00 0.00 81 0.2
20191019092506 43 241 0.0 0.0 0.00 0.00 0.00 81 0.2
20191019091508 44 299 2.0 0.0 0.00 0.00 0.00 81 0.2
20191019090507 44 349 2.0 0.0 0.00 0.00 0.00 81 0.2